| time (UTC) | temp F | wind direction | speed MPH | gust MPH | rain 1hr in | rain 24hr in | rain mn in | humidity % | barometer mb |
| 20260508130117 | 57 | 68 | 2.0 | 4.0 | 0.00 | 0.00 | 0.00 | 95 | 1015.0 |
| 20260508123117 | 57 | 0.0 | 3.0 | 0.00 | 0.00 | 0.00 | 95 | 1015.0 | |
| 20260508120116 | 57 | 0.0 | 3.0 | 0.00 | 0.00 | 0.00 | 95 | 1014.9 | |
| 20260508113116 | 57 | 90 | 2.0 | 4.0 | 0.00 | 0.00 | 0.00 | 95 | 1014.8 |
| 20260508110116 | 57 | 113 | 2.0 | 3.0 | 0.00 | 0.00 | 0.00 | 94 | 1014.8 |
| 20260508103116 | 57 | 135 | 1.0 | 4.0 | 0.00 | 0.00 | 0.00 | 94 | 1015.1 |
| 20260508100116 | 58 | 113 | 1.0 | 4.0 | 0.00 | 0.00 | 0.00 | 94 | 1015.3 |
| 20260508093116 | 58 | 90 | 1.0 | 3.0 | 0.00 | 0.00 | 0.00 | 94 | 1015.1 |
| 20260508090116 | 58 | 158 | 1.0 | 6.0 | 0.00 | 0.00 | 0.00 | 94 | 1015.2 |
| 20260508083116 | 58 | 0.0 | 3.0 | 0.00 | 0.00 | 0.00 | 93 | 1015.5 | |
| 20260508080117 | 58 | 0.0 | 0.0 | 0.00 | 0.00 | 0.00 | 93 | 1015.7 | |
| 20260508073116 | 58 | 0.0 | 4.0 | 0.00 | 0.00 | 0.00 | 93 | 1015.7 | |
| 20260508070116 | 58 | 0.0 | 2.0 | 0.00 | 0.00 | 0.00 | 93 | 1016.0 | |
| 20260508063116 | 58 | 270 | 1.0 | 4.0 | 0.00 | 0.00 | 0.00 | 93 | 1016.2 |
| 20260508060116 | 58 | 248 | 1.0 | 4.0 | 0.00 | 0.00 | 0.00 | 92 | 1015.8 |
| 20260508053117 | 58 | 248 | 2.0 | 4.0 | 0.00 | 0.00 | 0.00 | 92 | 1015.9 |
| 20260508050116 | 58 | 0.0 | 4.0 | 0.00 | 0.00 | 0.00 | 91 | 1015.7 | |
| 20260508043116 | 58 | 248 | 3.0 | 8.0 | 0.00 | 0.00 | 0.00 | 91 | 1015.5 |
| 20260508040115 | 59 | 248 | 6.0 | 10.0 | 0.00 | 0.00 | 0.00 | 89 | 1015.0 |
| 20260508033136 | 60 | 248 | 7.0 | 11.0 | 0.00 | 0.00 | 0.00 | 87 | 1014.7 |
| 20260508030115 | 62 | 270 | 6.0 | 9.0 | 0.00 | 0.00 | 0.00 | 83 | 1014.2 |
| 20260508023117 | 65 | 248 | 5.0 | 10.0 | 0.00 | 0.00 | 0.00 | 78 | 1013.7 |
| 20260508020116 | 67 | 248 | 6.0 | 11.0 | 0.00 | 0.00 | 0.00 | 74 | 1013.6 |
| 20260508013115 | 69 | 270 | 5.0 | 10.0 | 0.00 | 0.00 | 0.00 | 72 | 1013.6 |
| 20260508010136 | 70 | 248 | 6.0 | 12.0 | 0.00 | 0.00 | 0.00 | 71 | 1013.6 |
| 20260508003115 | 71 | 248 | 7.0 | 12.0 | 0.00 | 0.00 | 0.00 | 69 | 1013.8 |
| 20260508000115 | 72 | 248 | 7.0 | 13.0 | 0.00 | 0.00 | 0.00 | 67 | 1013.6 |
| 20260507233115 | 72 | 248 | 8.0 | 16.0 | 0.00 | 0.00 | 0.00 | 67 | 1013.6 |
| 20260507230136 | 71 | 248 | 8.0 | 14.0 | 0.00 | 0.00 | 0.00 | 67 | 1013.6 |
| 20260507223115 | 72 | 248 | 9.0 | 20.0 | 0.00 | 0.00 | 0.00 | 67 | 1013.6 |
| 20260507220116 | 72 | 248 | 9.0 | 16.0 | 0.00 | 0.00 | 0.00 | 66 | 1013.8 |
| 20260507213115 | 73 | 225 | 7.0 | 14.0 | 0.00 | 0.00 | 0.00 | 65 | 1014.4 |
| 20260507210116 | 73 | 248 | 7.0 | 18.0 | 0.00 | 0.00 | 0.00 | 65 | 1014.5 |
| 20260507203114 | 74 | 248 | 8.0 | 17.0 | 0.00 | 0.00 | 0.00 | 64 | 1014.6 |
| 20260507200114 | 73 | 293 | 7.0 | 14.0 | 0.00 | 0.00 | 0.00 | 63 | 1014.6 |
| 20260507193114 | 72 | 293 | 7.0 | 14.0 | 0.00 | 0.00 | 0.00 | 64 | 1014.9 |
| 20260507190115 | 71 | 293 | 8.0 | 14.0 | 0.00 | 0.00 | 0.00 | 66 | 1015.2 |
| 20260507183114 | 70 | 293 | 6.0 | 13.0 | 0.00 | 0.00 | 0.00 | 69 | 1015.3 |
| 20260507180115 | 69 | 293 | 5.0 | 11.0 | 0.00 | 0.00 | 0.00 | 70 | 1015.3 |
| 20260507173114 | 67 | 338 | 4.0 | 10.0 | 0.00 | 0.00 | 0.00 | 72 | 1015.5 |
| 20260507170115 | 65 | 338 | 4.0 | 10.0 | 0.00 | 0.00 | 0.00 | 75 | 1015.6 |
| 20260507163135 | 64 | 338 | 5.0 | 10.0 | 0.00 | 0.00 | 0.00 | 79 | 1015.8 |
| 20260507160114 | 62 | 293 | 3.0 | 8.0 | 0.00 | 0.00 | 0.00 | 82 | 1016.0 |
| 20260507153114 | 60 | 248 | 1.0 | 5.0 | 0.00 | 0.00 | 0.00 | 87 | 1015.9 |
| 20260507150115 | 58 | 68 | 1.0 | 4.0 | 0.00 | 0.00 | 0.00 | 91 | 1015.9 |
| 20260507143115 | 57 | 0.0 | 2.0 | 0.00 | 0.00 | 0.00 | 94 | 1015.8 | |
| 20260507140135 | 53 | 90 | 2.0 | 4.0 | 0.00 | 0.00 | 0.00 | 93 | 1015.6 |
| 20260507133114 | 52 | 135 | 1.0 | 3.0 | 0.00 | 0.00 | 0.00 | 93 | 1015.4 |